CYBWCYXC

Guest
Details From CYBW - Calgary Springbank
To CYXC - CANADIAN ROCKIES INTL
Flight Number -
Tags generated
Created
Modified
Stats Distance 109 nm / 202 km
Max Altitude 8,100 ft / 2,469 m
Waypoints 3
Social Downloads 0
Likes 0
Share VATSIM

Download

Looking for another format? Having issues loading an existing format? Contact us
Advertisement - Login to hide

Notes

Basic altitude profile: - Ascent Rate: 700ft/min - Ascent Speed: 80kts - Cruise Altitude: 10500ft - Cruise Speed: 110kts - Descent Rate: 500ft/min - Descent Speed: 110kts Options: - Use NATs: yes - Use PACOTS: no - Use low airways: no - Use high airways: no

Route

CYBW 5000N11500W CYXC

ID Type Via Altitude Latitude Longitude Leg Dist Tot Dist Heading (true) Name
O CYBW APT - 0 ft / 0 m 51.11176˚ -114.37654˚ - 0 nm - Calgary Springbank
5000N11500W LATLON - 8,100 ft / 2,469 m 50.00000˚ -115.00000˚ 70 nm 70 nm 200° / 199° -
O CYXC APT - 0 ft / 0 m 49.61212˚ -115.78205˚ 38 nm 109 nm 233° / 232° CANADIAN ROCKIES INTL

Altitude Profile

Advertisement - Login to hide

CYBW

Details ICAO CYBW (YBW)
Name Calgary Springbank
Region Canada
Timezone America/Edmonton (UTC-7.0)
Stats Elevation 3,937 ft / 1,200 m (AMSL)
Location 51.111765° -114.376537°
Runways 2
Magnetic Variation 14.237° E

METAR

CYBW 131800Z AUTO 34008KT 9SM BKN065 M00/M06 A3024 RMK SLP297

Decode

TAF

TAF CYBW 131738Z 1318/1405 30008KT P6SM SCT060 TEMPO 1318/1405 BKN060 BECMG 1322/1324 32012KT RMK FCST BASED ON AUTO OBS. NXT FCST BY 140000Z

Decode

Departure Runways

ID Width Length Bearing (true) Bearing (mag) Surface Threshold Offset Overrun Length
07 100 ft / 30 m 3,389 ft / 1,033 m 89.99° 75.75° Asphalt 0 ft / 0 m 0 ft / 0 m
16 75 ft / 23 m 3,083 ft / 940 m 180.71° 166.47° Asphalt 0 ft / 0 m 0 ft / 0 m
25 100 ft / 30 m 3,389 ft / 1,033 m 270.01° 255.77° Asphalt 0 ft / 0 m 0 ft / 0 m
34 75 ft / 23 m 3,083 ft / 940 m 0.71° 346.47° Asphalt 0 ft / 0 m 0 ft / 0 m

CYXC

Details ICAO CYXC (YXC)
Name CANADIAN ROCKIES INTL
Region Canada
Timezone America/Edmonton (UTC-7.0)
Stats Elevation 3,084 ft / 940 m (AMSL)
Location 49.612121° -115.782055°
Runways 1
Magnetic Variation 14.455° E

METAR

CYXC 131800Z 00000KT 15SM BKN008 BKN090 M07/M09 A3046 RMK SC7AC1 AC TR SLP370

Decode

TAF

TAF CYXC 131838Z 1319/1407 VRB03KT 6SM BR OVC008 TEMPO 1319/1320 3SM BR FM132000 36005KT P6SM OVC015 TEMPO 1320/1407 5SM BR OVC008 RMK NXT FCST BY 140100Z

Decode

Destination Runways

ID Width Length Bearing (true) Bearing (mag) Surface Threshold Offset Overrun Length
16 150 ft / 46 m 8,000 ft / 2,438 m 179.16° 164.71° Asphalt 780 ft / 238 m 0 ft / 0 m
34 150 ft / 46 m 8,000 ft / 2,438 m 359.16° 344.71° Asphalt 0 ft / 0 m 0 ft / 0 m

Approach Navaids

Runway Type Ident Frequency Range Bearing (true) Bearing (mag) Slope Elevation
16 Localiser IXC 110.30 MHz 18 nm / 33 km 179.82° 165.37° - 3,058 ft / 932 m (AMSL)
16 Glidescope IXC 110.30 MHz 10 nm / 19 km 179.16° 164.70° 3.00° 3,015 ft / 919 m (AMSL)

Popular Alternatives